This demonstration page uses our WeatherBlox Daily Observations layout. Learn more.

Left ArrowRight Arrow

32.84923, -109.75925

Hourly Observations for October 2, 2022

Temp ( °F °C ) Dew Point ( °F °C ) Humidity (%) Winds ( mph kmh ) Pressure ( in mb ) Visibility ( mi km ) Precip ( " mm )
12:51 am 00:51 Clear 68 20 52 11.1 57 57 SE 7 11 29.85 1011 10 16 0.00 0.00
1:51 am 01:51 Clear 67 19.4 52 11.1 59 59 Calm 29.83 1010 10 16 0.00 0.00
2:51 am 02:51 Mostly Clear 67 19.4 53 11.7 61 61 E 6 9 29.83 1010 10 16 0.00 0.00
3:51 am 03:51 Mostly Cloudy 68 20 53 11.7 59 59 ESE 12 19 29.85 1011 10 16 0.00 0.00
4:51 am 04:51 Clear 66 18.9 53 11.7 63 63 ESE 8 13 29.87 1012 10 16 0.00 0.00
5:51 am 05:51 Clear 65 18.3 53 11.7 65 65 E 6 9 29.90 1013 10 16 0.00 0.00
6:51 am 06:51 Sunny 67 19.4 53 11.7 61 61 SE 7 11 29.92 1013 10 16 0.00 0.00
7:51 am 07:51 Sunny 72 22.2 53 11.7 51 51 ESE 8 13 29.93 1013 10 16 0.00 0.00
8:51 am 08:51 Sunny 76 24.4 52 11.1 43 43 E 12 19 29.94 1014 10 16 0.00 0.00
9:51 am 09:51 Sunny 79 26.1 52 11.1 39 39 ESE 12 19 29.93 1014 10 16 0.00 0.00
10:51 am 10:51 Sunny 82 27.8 53 11.7 37 37 SSE 9 15 29.92 1013 10 16 0.00 0.00
11:51 am 11:51 Sunny 84 28.9 50 10 31 31 ESE 10 17 29.90 1013 10 16 0.00 0.00
12:51 pm 12:51 Mostly Sunny 87 30.6 50 10 28 28 SSE 12 19 29.87 1012 10 16 0.00 0.00
1:51 pm 13:51 Mostly Sunny 87 30.6 50 10 28 28 SE 10 17 29.84 1011 10 16 0.00 0.00
2:51 pm 14:51 Sunny 88 31.1 50 10 27 27 S 7 11 29.82 1010 10 16 0.00 0.00
3:51 pm 15:51 Sunny 89 31.7 50 10 26 26 SE 9 15 29.81 1010 10 16 0.00 0.00
4:51 pm 16:51 Partly Cloudy 84 28.9 52 11.1 33 33 SE 24 39 29.84 1011 10 16 0.00 0.00
5:51 pm 17:51 Partly Cloudy 82 27.8 52 11.1 35 35 E 6 9 29.85 1011 10 16 0.00 0.00
6:51 pm 18:51 Clear 81 27.2 52 11.1 37 37 ESE 8 13 29.87 1011 10 16 0.00 0.00
7:51 pm 19:51 Clear 77 25 51 10.6 40 40 SSE 3 6 29.88 1012 10 16 0.00 0.00
8:51 pm 20:51 Clear 74 23.3 50 10 43 43 E 5 7 29.89 1012 10 16 0.00 0.00
9:51 pm 21:51 Mostly Clear 74 23.3 50 10 43 43 SE 3 6 29.89 1012 10 16 0.00 0.00
10:51 pm 22:51 Partly Cloudy 73 22.8 50 10 44 44 ESE 5 7 29.89 1012 10 16 0.00 0.00
11:51 pm 23:51 Mostly Cloudy 75 23.9 50 10 41 41 E 13 20 29.91 1013 10 16 0.00 0.00

Powered by AerisWeather